• In Latvia
  • List of Countries
  • For 7 days
  • Water Temperature
  • Satellite Maps
  • Weather Map
  • Weather Widgets
  • user-avatar
    Login

    Hourly Weather Livingstone

    Today, 20 September, Thursday

    Time Temperature Precipitation Wind Pressure Humidity
    00:00 +26°C° 0 mm 2 mps 683 mmHg 14%
    01:00 +26°C° 0 mm 1 mps 683 mmHg 14%
    02:00 +25°C° 0 mm 1 mps 682 mmHg 14%
    03:00 +25°C° 0 mm 2 mps 682 mmHg 15%
    04:00 +24°C° 0 mm 2 mps 682 mmHg 15%
    05:00 +24°C° 0 mm 2 mps 682 mmHg 16%
    06:00 +25°C° 0 mm 2 mps 683 mmHg 15%
    07:00 +27°C° 0 mm 2 mps 684 mmHg 14%
    08:00 +29°C° 0 mm 2 mps 685 mmHg 12%
    09:00 +33°C° 0 mm 3 mps 685 mmHg 11%
    10:00 +36°C° 0 mm 3 mps 685 mmHg 9%
    11:00 +38°C° 0 mm 3 mps 685 mmHg 8%
    12:00 +40°C° 0 mm 4 mps 685 mmHg 7%
    13:00 +41°C° 0 mm 4 mps 684 mmHg 6%
    14:00 +42°C° 0 mm 5 mps 683 mmHg 6%
    15:00 +41°C° 0 mm 5 mps 683 mmHg 6%
    16:00 +40°C° 0 mm 5 mps 682 mmHg 7%
    17:00 +39°C° 0 mm 5 mps 682 mmHg 7%
    18:00 +35°C° 0 mm 4 mps 682 mmHg 9%
    19:00 +33°C° 0 mm 3 mps 682 mmHg 11%
    20:00 +29°C° 0 mm 2 mps 682 mmHg 13%
    21:00 +28°C° 0 mm 2 mps 682 mmHg 13%
    22:00 +28°C° 0 mm 2 mps 683 mmHg 14%
    23:00 +27°C° 0 mm 2 mps 683 mmHg 15%

    Tomorrow, 21 September, Friday

    Time Temperature Precipitation Wind Pressure Humidity
    00:00 +26°C° 0 mm 2 mps 683 mmHg 16%
    01:00 +26°C° 0 mm 2 mps 683 mmHg 17%
    02:00 +25°C° 0 mm 3 mps 683 mmHg 19%
    03:00 +24°C° 0 mm 2 mps 683 mmHg 20%
    04:00 +24°C° 0 mm 2 mps 683 mmHg 22%
    05:00 +23°C° 0 mm 2 mps 683 mmHg 24%
    06:00 +25°C° 0 mm 3 mps 684 mmHg 23%
    07:00 +27°C° 0 mm 4 mps 684 mmHg 22%
    08:00 +29°C° 0 mm 5 mps 685 mmHg 21%
    09:00 +32°C° 0 mm 5 mps 685 mmHg 19%
    10:00 +34°C° 0 mm 5 mps 685 mmHg 17%
    11:00 +36°C° 0 mm 5 mps 686 mmHg 15%
    12:00 +37°C° 0 mm 5 mps 685 mmHg 14%
    13:00 +39°C° 0 mm 5 mps 684 mmHg 12%
    14:00 +40°C° 0 mm 4 mps 684 mmHg 11%
    15:00 +40°C° 0 mm 5 mps 683 mmHg 11%
    16:00 +39°C° 0 mm 5 mps 683 mmHg 12%
    17:00 +37°C° 0 mm 5 mps 682 mmHg 12%
    18:00 +35°C° 0 mm 4 mps 682 mmHg 15%
    19:00 +33°C° 0 mm 3 mps 682 mmHg 18%
    20:00 +29°C° 0 mm 2 mps 682 mmHg 21%
    21:00 +29°C° 0 mm 2 mps 683 mmHg 22%
    22:00 +28°C° 0 mm 2 mps 683 mmHg 23%
    23:00 +28°C° 0 mm 2 mps 683 mmHg 24%

    Day after tomorrow, 22 September, Saturday

    Time Temperature Precipitation Wind Pressure Humidity
    00:00 +27°C° 0 mm 2 mps 683 mmHg 26%
    01:00 +27°C° 0 mm 2 mps 683 mmHg 27%
    02:00 +26°C° 0 mm 3 mps 682 mmHg 28%
    03:00 +26°C° 0 mm 3 mps 682 mmHg 30%
    04:00 +25°C° 0 mm 3 mps 682 mmHg 33%
    05:00 +24°C° 0 mm 3 mps 682 mmHg 35%
    06:00 +26°C° 0 mm 3 mps 683 mmHg 33%
    07:00 +28°C° 0 mm 4 mps 684 mmHg 32%
    08:00 +29°C° 0 mm 4 mps 685 mmHg 30%
    09:00 +32°C° 0 mm 4 mps 685 mmHg 26%
    10:00 +35°C° 0 mm 4 mps 686 mmHg 21%
    11:00 +37°C° 0 mm 4 mps 686 mmHg 17%
    12:00 +38°C° 0 mm 4 mps 685 mmHg 16%
    13:00 +39°C° 0 mm 5 mps 684 mmHg 14%
    14:00 +40°C° 0 mm 5 mps 683 mmHg 13%
    15:00 +39°C° 0 mm 5 mps 683 mmHg 13%
    16:00 +37°C° 0 mm 5 mps 682 mmHg 14%
    17:00 +37°C° 0 mm 5 mps 682 mmHg 14%
    18:00 +35°C° 0 mm 4 mps 682 mmHg 16%
    19:00 +31°C° 0 mm 3 mps 682 mmHg 18%
    20:00 +29°C° 0 mm 2 mps 683 mmHg 21%
    21:00 +29°C° 0 mm 2 mps 683 mmHg 22%
    22:00 +28°C° 0 mm 2 mps 683 mmHg 23%
    23:00 +27°C° 0 mm 2 mps 683 mmHg 24%

    23 September, Sunday

    Time Temperature Precipitation Wind Pressure Humidity
    00:00 +27°C° 0 mm 2 mps 683 mmHg 25%
    01:00 +26°C° 0 mm 2 mps 683 mmHg 26%
    02:00 +26°C° 0 mm 2 mps 682 mmHg 27%
    03:00 +25°C° 0 mm 2 mps 682 mmHg 28%
    04:00 +25°C° 0 mm 3 mps 682 mmHg 29%
    05:00 +24°C° 0 mm 3 mps 682 mmHg 30%
    06:00 +26°C° 0 mm 4 mps 683 mmHg 28%
    07:00 +27°C° 0 mm 5 mps 684 mmHg 26%
    08:00 +29°C° 0 mm 5 mps 685 mmHg 24%
    09:00 +32°C° 0 mm 5 mps 685 mmHg 20%
    10:00 +35°C° 0 mm 5 mps 685 mmHg 17%
    11:00 +37°C° 0 mm 5 mps 685 mmHg 13%
    12:00 +39°C° 0 mm 5 mps 684 mmHg 12%
    13:00 +39°C° 0 mm 5 mps 684 mmHg 11%
    14:00 +40°C° 0 mm 4 mps 683 mmHg 11%
    15:00 +39°C° 0 mm 5 mps 682 mmHg 11%
    16:00 +39°C° 0 mm 5 mps 682 mmHg 11%
    17:00 +37°C° 0 mm 5 mps 682 mmHg 12%
    18:00 +35°C° 0 mm 4 mps 682 mmHg 14%
    19:00 +33°C° 0 mm 4 mps 682 mmHg 16%
    20:00 +29°C° 0 mm 3 mps 682 mmHg 18%
    21:00 +29°C° 0 mm 2 mps 682 mmHg 19%
    22:00 +28°C° 0 mm 2 mps 682 mmHg 21%
    23:00 +27°C° 0 mm 2 mps 682 mmHg 22%

    24 September, Monday

    Time Temperature Precipitation Wind Pressure Humidity
    00:00 +26°C° 0 mm 2 mps 682 mmHg 23%
    01:00 +26°C° 0 mm 2 mps 681 mmHg 23%
    02:00 +25°C° 0 mm 2 mps 681 mmHg 24%
    03:00 +24°C° 0 mm 2 mps 681 mmHg 26%
    04:00 +24°C° 0 mm 2 mps 681 mmHg 28%
    05:00 +23°C° 0 mm 2 mps 681 mmHg 29%
    06:00 +25°C° 0 mm 3 mps 682 mmHg 28%
    07:00 +27°C° 0 mm 4 mps 683 mmHg 26%
    08:00 +28°C° 0 mm 4 mps 683 mmHg 25%
    09:00 +32°C° 0 mm 4 mps 684 mmHg 22%
    10:00 +35°C° 0 mm 4 mps 684 mmHg 19%
    11:00 +37°C° 0 mm 4 mps 684 mmHg 16%
    12:00 +39°C° 0 mm 3 mps 683 mmHg 14%
    13:00 +40°C° 0 mm 2 mps 682 mmHg 12%
    14:00 +42°C° 0 mm 2 mps 682 mmHg 10%
    15:00 +41°C° 0 mm 2 mps 681 mmHg 10%
    16:00 +40°C° 0 mm 2 mps 681 mmHg 11%
    17:00 +39°C° 0 mm 3 mps 680 mmHg 11%
    18:00 +36°C° 0 mm 3 mps 680 mmHg 13%
    19:00 +34°C° 0 mm 3 mps 681 mmHg 15%
    20:00 +32°C° 0 mm 4 mps 681 mmHg 17%
    21:00 +30°C° 0 mm 3 mps 681 mmHg 18%
    22:00 +29°C° 0 mm 3 mps 681 mmHg 18%
    23:00 +28°C° 0 mm 2 mps 681 mmHg 19%

    25 September, Tuesday

    Time Temperature Precipitation Wind Pressure Humidity
    00:00 +27°C° 0 mm 2 mps 681 mmHg 20%
    01:00 +27°C° 0 mm 2 mps 680 mmHg 20%
    02:00 +26°C° 0 mm 2 mps 680 mmHg 21%
    03:00 +26°C° 0 mm 2 mps 680 mmHg 23%
    04:00 +25°C° 0 mm 2 mps 680 mmHg 24%
    05:00 +25°C° 0 mm 2 mps 680 mmHg 26%
    06:00 +27°C° 0 mm 3 mps 681 mmHg 25%
    07:00 +28°C° 0 mm 3 mps 682 mmHg 23%
    08:00 +30°C° 0 mm 4 mps 683 mmHg 22%
    09:00 +34°C° 0 mm 4 mps 683 mmHg 19%
    10:00 +36°C° 0 mm 4 mps 683 mmHg 16%
    11:00 +40°C° 0 mm 4 mps 683 mmHg 14%
    12:00 +40°C° 0 mm 3 mps 683 mmHg 12%
    13:00 +42°C° 0 mm 2 mps 682 mmHg 10%
    14:00 +43°C° 0 mm 2 mps 681 mmHg 9%
    15:00 +43°C° 0 mm 2 mps 681 mmHg 9%
    16:00 +43°C° 0 mm 3 mps 681 mmHg 9%
    17:00 +42°C° 0 mm 3 mps 680 mmHg 9%
    18:00 +38°C° 0 mm 3 mps 680 mmHg 12%
    19:00 +36°C° 0 mm 3 mps 681 mmHg 14%
    20:00 +34°C° 0 mm 3 mps 681 mmHg 16%
    21:00 +33°C° 0 mm 3 mps 681 mmHg 17%
    22:00 +31°C° 0 mm 3 mps 681 mmHg 19%
    23:00 +30°C° 0 mm 2 mps 681 mmHg 20%
    Show more